Regional Weather Roundup
Issued by NWS

Home | Current Version | Previous Version | Text Only | Print | Product List | Glossary On
Versions: 1 2 3 4 5 6 7 8 9 10 11 12 13 14 15 16 17 18 19 20 21 22 23 24 25 26 27 28 29 30 31 32 33 34 35 36 37 38 39 40 41 42 43 44 45 46 47 48 49 50
927
ASUS43 KFSD 200610
RWRSD

WEATHER ROUNDUP FOR SOUTH DAKOTA
NATIONAL WEATHER SERVICE SIOUX FALLS SD
1200 AM CST FRI JAN 20 2017

NOTE: "FAIR" INDICATES FEW OR NO CLOUDS BELOW 12,000 FEET WITH NO
SIGNIFICANT WEATHER AND/OR OBSTRUCTIONS TO VISIBILITY.


SDZ001>005-009-010-012>017-200700-
NORTHWEST AND NORTH CENTRAL SOUTH DAKOTA

CITY           SKY/WX    TMP DP  RH WIND       PRES   REMARKS
BUFFALO          N/A     28  19  69 NW17      29.34F WCI  16
FAITH            N/A     20  18  92 NW5       29.41R WCI  13
MOBRIDGE       FOG       25  22  88 N3        29.43S VSB 1/2
$$

SDZ012>016-024>037-041>051-057-063-072>074-200700-
SOUTHWEST AND SOUTH CENTRAL SOUTH DAKOTA

CITY           SKY/WX    TMP DP  RH WIND       PRES   REMARKS
RAPID CTY ARPT CLOUDY    25  17  72 NW5       29.42S WCI  19
PIERRE         FOG       22  20  92 W3        29.44F VSB 1/4
CUSTER         CLOUDY    29  19  66 W3        29.43F
ELLSWORTH AFB  CLOUDY    30  19  64 CALM      29.41F
PHILIP         CLOUDY    13  12  96 W6        29.44S WCI   4
PINE RIDGE     CLOUDY    25  20  81 W3        29.46F
SPEARFISH      FAIR      36  23  60 W13       29.43S
WINNER         MOCLDY    36  33  89 S12       29.45F
$$

SDZ004>011-016>023-039-040-200700-
NORTHEAST SOUTH DAKOTA

CITY           SKY/WX    TMP DP  RH WIND       PRES   REMARKS
ABERDEEN       CLOUDY    34  32  92 S10       29.51F FOG     WCI  26
WATERTOWN      CLOUDY    34  34 100 S14       29.54S FOG     WCI  25
BROOKINGS      MIX PCPN  35  35 100 SE14      29.56S FOG     WCI  26
SISSETON         N/A     34  34 100 S9        29.55F WCI  27
$$

SDZ017-020-022-023-036>040-048>070-200700-
SOUTHEAST SOUTH DAKOTA

CITY           SKY/WX    TMP DP  RH WIND       PRES   REMARKS
SIOUX FALLS    DRIZZLE   37  37 100 S10       29.58F FOG
HURON          CLOUDY    36  36 100 SE13      29.51F
CHAMBERLAIN    CLOUDY    39  38  97 S7        29.47S
MITCHELL       CLOUDY    39  38  96 S15       29.54S
YANKTON        CLOUDY    37  36  93 SE10      29.57F
$$

ABBREVIATIONS USED IN REMARKS
   TC - TEMPERATURE IN CELSIUS
  WCI - WIND CHILL INDEX
   HX - HEAT INDEX
  VSB - VISIBILITY





USA.gov is the U.S. government's official web portal to all federal, state and local government web resources and services.